Location: DaltonSkyGazer Observatory
(42.4858°N, 73.1565°W)
Time: 00:22:08
(UTC-04:00)

Helios 1B - Visible Passes

Search period start: 01 July 2016 00:00
Search period end: 11 July 2016 00:00
Orbit: 622 x 624 km, 98.1° (Epoch: 30 June)

Date Brightness Start Highest point End Pass type
(mag) Time Alt. Az. Time Alt. Az. Time Alt. Az.
01 Jul 4.4 00:32:48 86° ENE 00:32:48 86° ENE 00:37:10 10° NNW visible
01 Jul 6.8 23:13:55 12° E 23:15:16 14° ENE 23:17:31 10° NNE visible
02 Jul 4.8 00:51:08 59° W 00:51:08 59° W 00:55:12 10° NNW visible
02 Jul 6.3 23:32:14 19° E 23:33:10 21° ENE 23:36:24 10° NNE visible
03 Jul 5.5 01:09:28 37° W 01:09:28 37° W 01:13:07 10° NNW visible
03 Jul 5.8 23:50:34 29° E 23:51:08 30° ENE 23:54:57 10° N visible
04 Jul 6.2 01:27:47 24° W 01:27:47 24° W 01:30:50 10° NW visible
05 Jul 5.1 00:08:54 46° E 00:09:08 47° ENE 00:13:18 10° N visible
05 Jul 6.7 01:46:08 16° W 01:46:08 16° W 01:48:13 10° NW visible
06 Jul 4.6 00:27:14 74° ENE 00:27:14 74° ENE 00:31:32 10° N visible
06 Jul 6.9 23:08:20 11° E 23:09:44 12° ENE 23:11:27 10° NE visible
07 Jul 4.7 00:45:34 68° WNW 00:45:34 68° WNW 00:49:37 10° NNW visible
07 Jul 6.5 23:26:41 17° E 23:27:37 18° ENE 23:30:34 10° NNE visible
08 Jul 5.3 01:03:54 42° W 01:03:54 42° W 01:07:35 10° NNW visible
08 Jul 6.0 23:45:01 26° E 23:45:33 27° ENE 23:49:11 10° N visible
09 Jul 6.0 01:22:14 27° W 01:22:14 27° W 01:25:22 10° NW visible
10 Jul 5.4 00:03:21 40° ENE 00:03:32 40° ENE 00:07:36 10° N visible
10 Jul 6.5 01:40:34 18° W 01:40:34 18° W 01:42:54 10° NW visible
